Weather History for Waco, TX

Change the Weather History Date:

Thursday, June 21, 2012

  Actual Average Record
Temperature  
Mean Temperature 83 °F 82 °F  
Max Temperature 94 °F 93 °F 107 °F (1936)
Min Temperature 72 °F 72 °F 57 °F (1976)
Degree Days  
Heating Degree Days 0 0  
Month to date heating degree days 0 0  
Since 1 June heating degree days 0 0  
Since 1 July heating degree days 1758 2142  
Cooling Degree Days 18 17  
Month to date cooling degree days 380 325  
Year to date cooling degree days 1045 777  
Since 1 June cooling degree days 380 325  
Growing Degree Days 32 (Base 50)    
Moisture  
Dew Point 68 °F    
Average Humidity 66    
Maximum Humidity 93    
Minimum Humidity 38    
Precipitation  
Precipitation 0.00 in 0.10 in 1.51 in (1904)
Month to date precipitation 1.81 2.68  
Year to date precipitation 21.64 17.57  
Sea Level Pressure  
Sea Level Pressure 29.98 in    
Wind  
Wind Speed 5 mph (ESE)    
Max Wind Speed 12 mph    
Max Gust Speed 16 mph    
Visibility 10 miles    
Events      
T = Trace of Precipitation, MM = Missing Value Source: NWS Daily Summary

Daily Weather History Graph

Daily Weather History Graph

Search for Another Location

Airport:

Trip Planner

Search our weather history database for the weather conditions in past years. The results will help you decide how hot, cold, wet, or windy it might be!

Date:

Astronomy

Jun. 21, 2012 Rise Set
Actual Time 6:24 AM CDT 8:37 PM CDT
Civil Twilight 5:56 AM CDT 9:05 PM CDT
Nautical Twilight 5:21 AM CDT 9:39 PM CDT
Astronomical Twilight 4:44 AM CDT 10:16 PM CDT
Moon 8:17 AM CDT (6/21) 10:09 PM CDT (6/21)
Length of Visible Light 15h 09m
Length of Day
14h 12m
Waxing Crescent, 4% of the Moon is Illuminated
Jun 21
Waxing Crescent
Jun 26
First Quarter
Jul 3
Full
Jul 10
Last Quarter
Jul 18
New

Hourly Weather History & Observations

Time (CDT) Temp. Heat Index Dew Point Humidity Pressure Visibility Wind Dir Wind Speed Gust Speed Precip Events Conditions
12:51 AM 75.0 °F - 71.1 °F 87% 29.96 in 10.0 mi SE 6.9 mph - N/A   Clear
1:51 AM 75.0 °F - 71.1 °F 87% 29.96 in 10.0 mi SSE 8.1 mph - N/A   Clear
2:51 AM 75.0 °F - 71.1 °F 87% 29.97 in 10.0 mi South 8.1 mph - N/A   Scattered Clouds
3:51 AM 73.0 °F - 71.1 °F 93% 29.98 in 10.0 mi ESE 3.5 mph - N/A   Clear
4:51 AM 73.9 °F - 71.1 °F 91% 29.97 in 10.0 mi SSE 3.5 mph - N/A   Clear
5:51 AM 73.9 °F - 71.1 °F 91% 29.98 in 10.0 mi ESE 4.6 mph - N/A   Clear
6:51 AM 72.0 °F - 70.0 °F 93% 29.98 in 5.0 mi East 4.6 mph - N/A   Clear
7:51 AM 73.4 °F - 71.6 °F 94% 30.02 in 7.0 mi ESE 3.5 mph - N/A   Clear
8:51 AM 77.0 °F - 72.0 °F 84% 30.02 in 10.0 mi Calm Calm - N/A   Scattered Clouds
9:08 AM 78.8 °F - 71.6 °F 78% 30.04 in 10.0 mi ESE 5.8 mph - N/A   Mostly Cloudy
9:51 AM 79.0 °F - 71.1 °F 77% 30.03 in 10.0 mi South 4.6 mph - N/A   Mostly Cloudy
10:51 AM 82.0 °F 86.3 °F 71.1 °F 69% 30.03 in 10.0 mi Variable 3.5 mph - N/A   Mostly Cloudy
10:58 AM 84.2 °F 89.6 °F 71.6 °F 66% 30.05 in 10.0 mi Calm Calm - N/A   Scattered Clouds
11:51 AM 84.9 °F 89.4 °F 70.0 °F 61% 30.03 in 10.0 mi South 4.6 mph - N/A   Mostly Cloudy
12:51 PM 88.0 °F 90.3 °F 66.0 °F 48% 30.02 in 10.0 mi ENE 4.6 mph - N/A   Partly Cloudy
1:51 PM 89.1 °F 92.9 °F 68.0 °F 50% 29.99 in 10.0 mi Calm Calm - N/A   Scattered Clouds
2:51 PM 90.0 °F 92.4 °F 66.0 °F 45% 29.98 in 10.0 mi SE 3.5 mph - N/A   Partly Cloudy
3:51 PM 91.0 °F 93.0 °F 64.9 °F 42% 29.96 in 10.0 mi NE 6.9 mph - N/A   Scattered Clouds
4:51 PM 93.0 °F 96.4 °F 66.9 °F 42% 29.94 in 10.0 mi East 10.4 mph - N/A   Mostly Cloudy
5:51 PM 91.9 °F 94.1 °F 64.9 °F 41% 29.92 in 10.0 mi NE 6.9 mph - N/A   Clear
6:51 PM 91.0 °F 92.6 °F 64.0 °F 41% 29.91 in 10.0 mi East 6.9 mph - N/A   Clear
7:51 PM 89.1 °F 88.8 °F 60.1 °F 38% 29.90 in 10.0 mi ENE 5.8 mph - N/A   Clear
8:51 PM 84.0 °F 84.9 °F 63.0 °F 49% 29.91 in 10.0 mi ENE 4.6 mph - N/A   Clear
9:51 PM 81.0 °F 82.7 °F 64.9 °F 58% 29.94 in 10.0 mi ENE 4.6 mph - N/A   Clear
10:51 PM 80.1 °F 82.1 °F 66.0 °F 62% 29.96 in 10.0 mi East 4.6 mph - N/A   Clear
11:51 PM 75.9 °F - 66.9 °F 74% 29.96 in 10.0 mi Calm Calm - N/A   Clear